TimeEST,TemperatureF,Dew PointF,Humidity,Sea Level PressureIn,VisibilityMPH,Wind Direction,Wind SpeedMPH,Gust SpeedMPH,PrecipitationIn,Events,Conditions,WindDirDegrees,DateUTC
12:15 AM,-13.0,-19.5,73,30.19,-9999.0,Calm,Calm,-,N/A,,Clear,0,2013-01-24 05:15:00
12:35 AM,-13.0,-19.3,73,30.18,-9999.0,Calm,Calm,-,N/A,,Clear,0,2013-01-24 05:35:00
12:55 AM,-13.0,-19.5,73,30.18,-9999.0,Calm,Calm,-,N/A,,Clear,0,2013-01-24 05:55:00
1:15 AM,-13.0,-19.3,73,30.18,-9999.0,Calm,Calm,-,N/A,,Clear,0,2013-01-24 06:15:00
1:55 AM,-13.0,-19.3,73,30.19,-9999.0,Calm,Calm,-,N/A,,Clear,0,2013-01-24 06:55:00
2:15 AM,-13.0,-19.3,73,30.19,-9999.0,Calm,Calm,-,N/A,,Clear,0,2013-01-24 07:15:00
2:35 AM,-13.0,-19.3,73,30.19,-9999.0,Calm,Calm,-,N/A,,Clear,0,2013-01-24 07:35:00
2:55 AM,-12.8,-19.1,73,30.19,-9999.0,Calm,Calm,-,N/A,,Clear,0,2013-01-24 07:55:00
3:15 AM,-10.7,-18.8,67,30.18,-9999.0,West,3.5,-,N/A,,Scattered Clouds,270,2013-01-24 08:15:00
3:35 AM,-8.0,-17.5,63,30.18,-9999.0,West,3.5,-,N/A,,Unknown,260,2013-01-24 08:35:00
3:55 AM,-8.0,-18.4,60,30.17,-9999.0,West,3.5,-,N/A,,Unknown,270,2013-01-24 08:55:00
4:15 AM,-8.0,-18.4,60,30.17,-9999.0,West,4.6,-,N/A,,Overcast,260,2013-01-24 09:15:00
4:35 AM,-8.0,-19.3,58,30.17,-9999.0,West,5.8,-,N/A,,Mostly Cloudy,270,2013-01-24 09:35:00
4:55 AM,-8.0,-19.3,58,30.17,-9999.0,West,4.6,-,N/A,,Clear,260,2013-01-24 09:55:00
5:15 AM,-8.0,-19.3,58,30.18,-9999.0,Calm,Calm,-,N/A,,Clear,0,2013-01-24 10:15:00
5:35 AM,-8.0,-19.7,57,30.18,-9999.0,Calm,Calm,-,N/A,,Clear,0,2013-01-24 10:35:00
5:55 AM,-8.0,-19.3,58,30.19,-9999.0,West,4.6,-,N/A,,Unknown,270,2013-01-24 10:55:00
6:15 AM,-8.0,-19.7,57,30.19,-9999.0,WNW,5.8,-,N/A,,Clear,290,2013-01-24 11:15:00
6:35 AM,-8.0,-19.7,57,30.19,-9999.0,West,5.8,-,N/A,,Clear,270,2013-01-24 11:35:00
6:55 AM,-7.8,-19.5,57,30.20,-9999.0,West,3.5,-,N/A,,Clear,280,2013-01-24 11:55:00
7:15 AM,-8.0,-19.3,58,30.19,-9999.0,West,3.5,-,N/A,,Scattered Clouds,270,2013-01-24 12:15:00
7:35 AM,-7.8,-19.1,58,30.20,-9999.0,West,4.6,-,N/A,,Clear,270,2013-01-24 12:35:00
8:15 AM,-5.4,-17.5,56,30.21,-9999.0,West,6.9,-,N/A,,Clear,270,2013-01-24 13:15:00
8:35 AM,-5.3,-18.0,54,30.22,-9999.0,West,4.6,-,N/A,,Clear,280,2013-01-24 13:35:00
8:55 AM,-5.3,-18.4,53,30.23,-9999.0,West,4.6,-,N/A,,Clear,280,2013-01-24 13:55:00
9:15 AM,-3.1,-17.1,51,30.23,-9999.0,West,4.6,-,N/A,,Clear,280,2013-01-24 14:15:00
9:35 AM,-3.1,-17.7,50,30.24,-9999.0,WNW,5.8,-,N/A,,Clear,290,2013-01-24 14:35:00
9:55 AM,-2.4,-18.6,46,30.23,-9999.0,West,6.9,-,N/A,,Clear,270,2013-01-24 14:55:00
10:15 AM,-3.1,-18.8,47,30.24,-9999.0,West,6.9,16.1,N/A,,Clear,280,2013-01-24 15:15:00
10:35 AM,-1.5,-18.2,45,30.24,-9999.0,West,10.4,-,N/A,,Clear,270,2013-01-24 15:35:00
10:55 AM,0.1,-17.1,44,30.24,-9999.0,WNW,9.2,-,N/A,,Clear,300,2013-01-24 15:55:00
11:15 AM,0.5,-17.0,44,30.23,-9999.0,West,6.9,16.1,N/A,,Clear,270,2013-01-24 16:15:00
11:35 AM,1.0,-16.8,43,30.22,-9999.0,West,8.1,-,N/A,,Clear,260,2013-01-24 16:35:00
11:55 AM,1.6,-16.8,42,30.20,-9999.0,West,8.1,19.6,N/A,,Clear,260,2013-01-24 16:55:00
12:15 PM,1.8,-16.1,43,30.19,-9999.0,West,5.8,17.3,N/A,,Clear,280,2013-01-24 17:15:00
12:35 PM,4.5,-14.3,42,30.19,10.0,West,8.1,18.4,N/A,,Clear,280,2013-01-24 17:35:00
12:55 PM,4.5,-14.1,42,30.19,10.0,NW,10.4,16.1,N/A,,Clear,310,2013-01-24 17:55:00
1:15 PM,4.5,-12.5,46,30.19,10.0,WNW,8.1,-,N/A,,Scattered Clouds,290,2013-01-24 18:15:00
1:35 PM,4.5,-12.5,46,30.18,10.0,West,10.4,19.6,N/A,,Mostly Cloudy,280,2013-01-24 18:35:00
1:55 PM,4.5,-12.8,45,30.19,10.0,West,9.2,17.3,N/A,,Overcast,280,2013-01-24 18:55:00
2:15 PM,2.7,-13.5,47,30.19,10.0,WNW,9.2,16.1,N/A,,Overcast,290,2013-01-24 19:15:00
2:35 PM,1.2,-14.8,47,30.20,10.0,WNW,11.5,19.6,N/A,,Overcast,290,2013-01-24 19:35:00
2:55 PM,1.2,-14.3,48,30.22,10.0,NW,8.1,-,N/A,,Overcast,310,2013-01-24 19:55:00
3:15 PM,0.5,-14.3,50,30.22,10.0,NW,9.2,18.4,N/A,,Overcast,310,2013-01-24 20:15:00
3:35 PM,0.3,-14.4,50,30.23,10.0,West,8.1,17.3,N/A,,Overcast,280,2013-01-24 20:35:00
3:55 PM,-0.4,-14.4,52,30.24,10.0,WNW,11.5,16.1,N/A,,Overcast,300,2013-01-24 20:55:00
4:15 PM,-0.0,-14.8,50,30.25,10.0,WNW,11.5,23.0,N/A,,Overcast,300,2013-01-24 21:15:00
4:35 PM,0.1,-13.9,52,30.25,10.0,WNW,11.5,17.3,N/A,,Overcast,300,2013-01-24 21:35:00
4:55 PM,0.5,-13.5,52,30.25,10.0,WNW,9.2,17.3,N/A,,Overcast,290,2013-01-24 21:55:00
5:15 PM,0.5,-13.9,51,30.26,10.0,WNW,10.4,21.9,N/A,,Overcast,290,2013-01-24 22:15:00
5:35 PM,0.5,-14.1,50,30.27,10.0,WNW,8.1,19.6,N/A,,Overcast,300,2013-01-24 22:35:00
5:55 PM,1.0,-13.7,50,30.28,10.0,WNW,5.8,17.3,N/A,,Overcast,300,2013-01-24 22:55:00
6:15 PM,1.0,-14.1,49,30.29,10.0,WNW,5.8,20.7,N/A,,Overcast,290,2013-01-24 23:15:00
6:35 PM,0.9,-14.1,50,30.30,10.0,WNW,10.4,19.6,N/A,,Overcast,290,2013-01-24 23:35:00
6:55 PM,1.2,-13.9,49,30.31,10.0,WNW,10.4,16.1,N/A,,Overcast,300,2013-01-24 23:55:00
7:15 PM,1.4,-13.2,51,30.32,10.0,West,11.5,18.4,N/A,,Overcast,280,2013-01-25 00:15:00
7:35 PM,1.4,-13.0,51,30.33,7.0,West,9.2,18.4,N/A,,Overcast,280,2013-01-25 00:35:00
7:55 PM,1.2,-12.3,53,30.32,10.0,WNW,9.2,24.2,N/A,,Overcast,300,2013-01-25 00:55:00
8:15 PM,1.2,-12.1,54,30.33,10.0,WNW,4.6,19.6,N/A,,Overcast,300,2013-01-25 01:15:00
8:35 PM,1.2,-12.5,53,30.33,10.0,WNW,9.2,18.4,N/A,,Overcast,290,2013-01-25 01:35:00
8:55 PM,1.4,-13.0,51,30.33,10.0,West,9.2,23.0,N/A,,Overcast,280,2013-01-25 01:55:00
9:15 PM,1.0,-13.0,52,30.34,10.0,WNW,11.5,20.7,N/A,,Mostly Cloudy,300,2013-01-25 02:15:00
9:35 PM,0.5,-12.8,54,30.34,10.0,WNW,10.4,-,N/A,,Scattered Clouds,290,2013-01-25 02:35:00
9:55 PM,0.5,-12.5,55,30.35,10.0,WNW,10.4,19.6,N/A,,Clear,300,2013-01-25 02:55:00
10:15 PM,0.3,-12.3,55,30.35,10.0,WNW,9.2,-,N/A,,Clear,300,2013-01-25 03:15:00
10:35 PM,0.1,-12.1,56,30.36,10.0,West,5.8,-,N/A,,Clear,280,2013-01-25 03:35:00
10:55 PM,0.5,-11.6,57,30.37,10.0,WNW,6.9,16.1,N/A,,Mostly Cloudy,290,2013-01-25 03:55:00
11:15 PM,0.5,-11.7,56,30.37,10.0,West,11.5,18.4,N/A,,Overcast,280,2013-01-25 04:15:00
11:35 PM,0.5,-11.4,57,30.38,10.0,WNW,9.2,19.6,N/A,,Overcast,300,2013-01-25 04:35:00
11:55 PM,0.5,-11.4,57,30.38,10.0,WNW,8.1,-,N/A,,Overcast,290,2013-01-25 04:55:00